Total_Precipitation_Accumulation
0.00 0.00 0.01 0.02 0.06 0.14 0.28 0.30 0.36 0.49 0.53 0.49 0.49 0.55 0.64 0.68 0.84 1.54 0.95 0.43 0.31 0.22 0.24 0.24 0.24 0.25 0.25 0.26 0.30 0.31 0.30 0.28 0.26 0.24 0.24 0.25 0.26 0.26 0.26 0.31 0.45 0.50 0.48 0.43 0.41 0.42 0.40 0.37 0.34
0.01 0.01 0.02 0.03 0.09 0.25 0.32 0.31 0.39 0.49 0.46 0.40 0.44 0.49 0.48 0.49 0.48 0.48 0.56 0.39 0.29 0.23 0.24 0.20 0.20 0.21 0.23 0.22 0.23 0.28 0.30 0.29 0.26 0.23 0.26 0.27 0.28 0.30 0.30 0.33 0.47 0.66 0.66 0.62 0.53 0.46 0.43 0.39 0.34
0.01 0.02 0.03 0.03 0.10 0.28 0.36 0.33 0.38 0.43 0.37 0.42 0.47 0.52 0.55 0.56 0.51 0.48 0.47 0.30 0.29 0.27 0.23 0.21 0.19 0.20 0.21 0.20 0.23 0.29 0.34 0.40 0.35 0.31 0.30 0.28 0.28 0.30 0.34 0.39 0.45 0.66 0.71 0.68 0.61 0.56 0.51 0.45 0.39
0.01 0.02 0.02 0.04 0.13 0.23 0.32 0.36 0.46 0.52 0.41 0.43 0.45 0.60 0.67 0.57 0.56 0.52 0.46 0.38 0.30 0.31 0.29 0.22 0.20 0.20 0.21 0.23 0.23 0.27 0.42 0.46 0.40 0.37 0.35 0.33 0.34 0.34 0.39 0.48 0.53 0.53 0.58 0.62 0.66 0.68 0.58 0.46 0.40
0.02 0.03 0.03 0.06 0.13 0.21 0.34 0.42 0.58 0.60 0.43 0.39 0.46 0.75 0.90 0.81 0.74 0.70 0.58 0.50 0.40 0.35 0.39 0.29 0.26 0.27 0.27 0.26 0.25 0.29 0.39 0.44 0.45 0.46 0.44 0.40 0.40 0.41 0.47 0.55 0.60 0.60 0.64 0.65 0.64 0.69 0.62 0.52 0.48
0.02 0.02 0.05 0.09 0.14 0.23 0.28 0.42 0.48 0.55 0.48 0.43 0.58 0.98 1.33 1.32 1.22 1.10 0.94 0.67 0.52 0.42 0.49 0.44 0.36 0.32 0.32 0.31 0.30 0.34 0.42 0.49 0.53 0.52 0.45 0.43 0.44 0.46 0.51 0.56 0.59 0.64 0.67 0.62 0.57 0.60 0.62 0.62 0.59
0.02 0.03 0.06 0.10 0.17 0.24 0.29 0.45 0.51 0.57 0.55 0.57 0.78 1.03 1.33 1.48 1.50 1.39 1.23 0.95 0.89 0.78 0.82 0.74 0.55 0.47 0.45 0.48 0.48 0.44 0.44 0.48 0.55 0.57 0.50 0.46 0.47 0.48 0.50 0.53 0.56 0.58 0.59 0.59 0.56 0.58 0.56 0.58 0.59
0.02 0.03 0.05 0.11 0.20 0.27 0.36 0.55 0.53 0.52 0.58 0.67 0.94 1.17 1.50 1.49 1.30 1.42 1.41 1.24 1.24 1.28 1.26 0.90 0.70 0.68 0.72 0.72 0.66 0.59 0.54 0.54 0.55 0.55 0.57 0.54 0.51 0.53 0.59 0.54 0.57 0.58 0.60 0.58 0.56 0.57 0.57 0.58 0.62
0.04 0.03 0.06 0.14 0.23 0.28 0.30 0.47 0.47 0.40 0.45 0.64 0.93 1.07 1.23 1.17 1.15 1.42 1.52 1.65 1.72 1.54 1.35 1.20 0.98 0.91 0.90 0.83 0.71 0.71 0.68 0.66 0.67 0.67 0.64 0.64 0.64 0.75 0.80 0.69 0.74 0.71 0.69 0.63 0.64 0.66 0.65 0.65 0.65
0.02 0.03 0.06 0.12 0.16 0.23 0.30 0.42 0.39 0.44 0.48 0.60 0.76 0.99 1.21 1.15 1.33 1.49 1.61 1.94 1.85 1.76 1.57 1.46 1.35 1.17 1.08 0.92 0.97 0.97 0.91 0.91 0.88 0.99 0.92 0.97 1.15 1.26 1.15 1.26 1.17 1.04 0.94 0.87 0.89 0.92 0.83 0.74 0.69
0.03 0.04 0.07 0.12 0.13 0.20 0.31 0.40 0.39 0.51 0.67 0.94 1.05 1.09 1.16 1.18 1.41 1.64 1.88 2.21 2.25 2.01 1.69 1.64 1.61 1.59 1.55 1.54 1.39 1.30 1.31 1.37 1.32 1.44 1.35 1.43 1.52 1.48 1.52 1.64 1.47 1.33 1.25 1.21 1.28 1.16 0.92 0.89 0.98
0.06 0.07 0.12 0.12 0.16 0.25 0.39 0.48 0.64 0.71 0.85 1.09 1.17 1.13 1.24 1.33 1.48 1.66 1.92 2.21 2.44 2.34 2.12 2.11 1.90 1.85 1.92 2.11 2.03 1.67 1.58 1.60 1.56 1.77 1.70 1.83 1.97 1.96 2.05 2.09 1.88 1.82 1.80 1.80 1.69 1.58 1.40 1.29 1.26
0.07 0.09 0.12 0.11 0.19 0.31 0.47 0.51 0.62 0.61 0.53 0.81 1.04 1.16 1.29 1.28 1.46 1.64 1.96 2.50 2.78 2.77 2.58 2.54 2.42 2.32 2.37 2.61 2.64 2.12 1.98 2.10 2.31 2.40 2.21 2.21 2.21 2.26 2.45 2.41 2.32 2.22 2.29 2.23 2.08 1.89 1.90 1.85 1.68
0.04 0.06 0.08 0.12 0.18 0.26 0.39 0.40 0.51 0.69 0.63 0.75 0.89 1.08 1.29 1.53 1.79 2.04 2.33 2.77 3.06 3.16 3.01 2.90 2.81 2.78 2.73 2.82 2.85 2.82 2.57 2.61 2.79 2.87 2.82 2.64 2.64 2.81 2.97 2.92 2.74 2.50 2.48 2.44 2.37 2.31 2.37 2.30 2.24
0.06 0.06 0.10 0.15 0.21 0.25 0.30 0.47 0.60 0.72 0.77 0.85 0.92 1.06 1.31 1.60 1.88 2.15 2.65 2.95 3.02 3.05 2.99 3.06 3.00 3.06 3.11 3.18 3.09 3.17 3.16 3.21 3.34 3.36 3.17 2.97 2.96 3.29 3.36 3.36 3.08 2.84 2.80 2.92 2.86 2.78 2.76 2.51 2.42
0.10 0.10 0.15 0.19 0.22 0.28 0.27 0.54 0.71 0.60 0.63 0.78 0.95 1.10 1.22 1.42 1.84 2.22 2.62 2.84 3.00 3.36 3.37 3.34 3.32 3.37 3.44 3.46 3.39 3.40 3.40 3.70 3.77 3.76 3.64 3.36 3.29 3.40 3.48 3.47 3.33 3.19 3.12 3.35 3.46 3.38 3.29 3.11 3.02
0.13 0.16 0.19 0.22 0.22 0.26 0.29 0.52 0.68 0.66 0.65 0.79 1.13 1.38 1.35 1.51 1.95 2.39 2.72 2.96 3.11 3.29 3.47 3.42 3.47 3.64 3.63 3.65 3.50 3.65 3.84 3.86 3.80 3.78 3.81 3.76 3.69 3.75 3.79 3.70 3.69 3.71 3.78 3.76 3.54 3.64 3.50 3.49 3.38
0.16 0.16 0.19 0.24 0.26 0.24 0.30 0.50 0.70 0.79 0.95 1.01 1.18 1.39 1.52 1.60 1.79 2.15 2.63 3.07 3.20 3.23 3.19 3.31 3.36 3.50 3.59 3.81 3.81 3.86 4.01 4.17 4.32 4.44 4.46 4.22 4.20 4.16 4.37 4.33 4.25 4.24 4.21 4.00 3.92 3.89 3.70 3.52 3.39
0.15 0.18 0.22 0.25 0.25 0.30 0.37 0.51 0.75 0.91 1.09 1.07 1.11 1.22 1.35 1.64 1.83 2.16 2.51 2.82 3.34 3.35 3.21 3.30 3.46 3.66 3.76 4.03 4.12 4.35 4.69 4.91 5.06 5.09 4.96 4.93 4.83 4.95 5.00 4.79 4.58 4.44 4.43 4.34 4.30 4.09 3.87 3.61 3.49
0.18 0.27 0.30 0.27 0.25 0.33 0.48 0.63 0.81 0.96 1.03 1.00 1.10 1.29 1.43 1.84 2.19 2.34 2.53 2.94 3.42 3.56 3.55 3.57 3.76 4.07 4.29 4.52 4.97 5.27 5.53 5.77 5.97 5.99 5.56 5.36 5.25 5.15 5.08 5.11 5.01 4.81 4.63 4.42 4.23 4.16 3.98 3.64 3.56
0.13 0.19 0.24 0.26 0.25 0.34 0.54 0.82 0.97 1.06 1.18 1.32 1.52 1.73 1.85 2.06 2.41 2.48 2.57 2.93 3.26 3.43 3.50 3.62 3.87 4.30 4.84 5.22 5.68 6.11 6.26 6.29 6.16 5.91 5.78 5.64 5.47 5.31 5.16 5.03 4.81 4.67 4.54 4.35 4.15 3.98 3.88 3.65 3.52
0.11 0.14 0.20 0.21 0.25 0.37 0.48 0.91 1.24 1.32 1.45 1.71 1.92 1.94 2.03 2.20 2.38 2.49 2.65 2.90 3.19 3.41 3.52 3.84 4.34 4.93 5.48 5.96 6.49 6.99 7.10 6.93 6.64 6.18 5.76 5.52 5.27 4.94 4.71 4.58 4.47 4.30 3.99 3.75 3.59 3.50 3.36 3.24 3.10
0.12 0.10 0.17 0.19 0.20 0.33 0.46 0.81 1.56 1.68 1.77 2.00 2.21 2.01 1.98 1.98 2.03 2.27 2.45 2.65 3.03 3.22 3.43 3.77 4.34 5.02 5.71 6.54 7.23 7.67 7.58 7.25 6.81 6.13 5.55 5.09 4.70 4.33 4.06 3.93 3.76 3.54 3.19 2.84 2.71 2.77 2.85 2.86 2.80
0.10 0.11 0.15 0.18 0.23 0.39 0.39 0.72 1.47 1.88 2.06 2.16 2.09 1.91 1.87 1.79 1.78 1.90 2.02 2.25 2.56 2.85 3.15 3.56 4.18 4.88 5.52 6.16 6.70 6.94 6.85 6.65 6.12 5.44 4.82 4.42 4.09 3.74 3.38 3.06 2.79 2.56 2.40 2.21 2.17 2.20 2.28 2.48 2.60
0.10 0.15 0.37 0.50 0.54 0.57 0.44 0.74 1.41 1.74 1.87 1.80 1.74 1.78 1.67 1.68 1.66 1.66 1.71 1.91 2.24 2.44 2.81 3.25 3.69 4.32 4.73 5.06 5.48 5.67 5.70 5.48 5.19 4.71 4.24 3.80 3.31 2.97 2.69 2.40 2.27 2.13 2.01 1.95 1.95 1.94 1.90 2.00 2.18
0.11 0.13 0.40 0.65 0.62 0.64 0.63 1.06 1.59 1.63 1.59 1.51 1.46 1.50 1.53 1.54 1.53 1.58 1.68 1.84 2.10 2.24 2.42 2.64 2.95 3.33 3.50 3.55 3.78 4.03 4.05 4.00 3.88 3.59 3.27 2.98 2.63 2.25 2.01 1.81 1.69 1.66 1.69 1.64 1.68 1.69 1.69 1.70 1.78
0.09 0.12 0.18 0.36 0.42 0.71 1.02 1.45 1.89 1.76 1.69 1.61 1.58 1.43 1.38 1.36 1.39 1.51 1.60 1.61 1.65 1.75 1.87 1.97 2.14 2.31 2.40 2.48 2.54 2.68 2.70 2.69 2.61 2.45 2.22 2.02 1.87 1.64 1.50 1.40 1.38 1.36 1.38 1.44 1.44 1.40 1.43 1.52 1.56
0.09 0.15 0.23 0.40 0.69 0.95 1.25 1.82 2.38 2.29 1.94 1.66 1.47 1.26 1.16 1.20 1.28 1.37 1.46 1.46 1.46 1.46 1.56 1.63 1.70 1.78 1.81 1.88 1.85 1.84 1.85 1.86 1.81 1.68 1.61 1.53 1.42 1.32 1.31 1.24 1.18 1.10 1.09 1.10 1.14 1.17 1.20 1.25 1.34
0.16 0.21 0.30 0.43 0.52 0.90 1.40 2.13 2.30 2.47 2.35 1.93 1.60 1.41 1.29 1.20 1.18 1.25 1.25 1.25 1.24 1.26 1.32 1.41 1.43 1.41 1.41 1.40 1.38 1.36 1.32 1.32 1.36 1.38 1.33 1.26 1.18 1.08 1.05 0.95 0.88 0.85 0.88 0.93 0.98 1.02 1.06 1.10 1.15
0.17 0.21 0.32 0.62 0.68 0.69 1.31 2.31 2.27 2.52 2.59 2.30 1.98 1.79 1.67 1.39 1.27 1.27 1.20 1.14 1.09 1.09 1.13 1.20 1.21 1.20 1.24 1.16 1.06 1.07 1.05 1.04 1.09 1.12 1.04 1.00 0.98 0.92 0.85 0.74 0.71 0.70 0.73 0.78 0.81 0.85 0.88 0.98 1.00